WGS F7 (USA 263)

Last updated on Wed Oct 29 2025 00:02:48 GMT+0000 (Coordinated Universal Time)

1 40746U 15036A 25301.22139105 .00000029 00000+0 00000+0 0 9999 2 40746 0.0177 262.9279 0000072 196.8538 191.7600 1.00271936 37546
UTC large
Height (km)
Speed (km/s)
/
Latitude / Longitude
Inclination (degrees)
Orbital Period (minutes)
Azimuth
Elevation
Range (km)
Doppler Factor

Next 0 passes for location: London (51.5072 / 0.1276)

Sorry there are no passes over London.